Regional Weather Roundup
Issued by NWS New Orleans/Baton Rouge, LA

Home | Current Version | Previous Version | Text Only | Print | Product List | Glossary On
Versions: 1 2 3 4 5 6 7 8 9 10 11 12 13 14 15 16 17 18 19 20 21 22 23 24 25 26 27 28 29 30 31 32 33 34 35 36 37 38 39 40 41 42 43 44 45 46 47 48 49 50
718
ASUS44 KLIX 232105
RWRLIX
NEW ORLEANS REGIONAL WEATHER ROUNDUP
NATIONAL WEATHER SERVICE NEW ORLEANS LA
400 PM CDT THU OCT 23 2014

NOTE: "FAIR" INDICATES FEW OR NO CLOUDS BELOW 12,000 FEET WITH NO
      SIGNIFICANT WEATHER AND/OR OBSTRUCTIONS TO VISIBILITY.
      SKY/WX - SKY CONDITION AND SIGNIFICANT WEATHER.
      TMP - AIR TEMPERATURE.     DP    - DEWPOINT TEMPERATURE.
      RH  - RELATIVE HUMIDITY.   PRES  - PRESSURE.
      HI  - HEAT INDEX.          WCI   - WIND CHILL INDEX.

*  THESE STATIONS ARE NOT NWS OR FAA STATIONS AND ARE NOT UNDER
   NWS QUALITY CONTROL.

LAZ038-040-048-061>063-065>067-069-232200-
SOUTHEAST LOUISIANA

CITY           SKY/WX    TMP DP  RH WIND       PRES   REMARKS
N.O. AUDUBON     N/A     73  50  43 MISG        N/A
N.O. INTL ARPT PTSUNNY   74  46  36 N8        30.04S
N.O. LAKEFRONT MOSUNNY   74  47  38 NE6       30.04F
N.O. DOWNTOWN*   N/A     73  45  35 NE5       30.04S
SLIDELL        SUNNY     75  46  35 NE6       30.03F
BATON ROUGE    PTSUNNY   73  47  39 NE5       30.04F
BOOTHVILLE     SUNNY     72  58  61 NE8       30.03S
BELLE CHASSE   MOSUNNY   73  45  36 NE10      30.03F
BOGALUSA*        N/A     76  37  25 E3        30.05F
NEW ROADS*       N/A     69  52  55 NW5       30.05F
GONZALES*        N/A     74  48  39 CALM      30.03F
HAMMOND*       MOSUNNY   75  39  27 NE6       30.05F
HOUMA*         SUNNY     77  48  36 N7        30.03S
PORT FOURCHON* CLEAR     73  55  53 NE9G16    30.06S

$$

MSZ070-080>082-232200-
SOUTHERN MISSISSIPPI

CITY           SKY/WX    TMP DP  RH WIND       PRES   REMARKS
MCCOMB         PTSUNNY   71  44  37 N7        30.06F
GULFPORT       SUNNY     76  44  32 N7        30.02F
BILOXI         SUNNY     76  44  31 NE6       30.02F
PASCAGOULA     SUNNY     76  43  30 VRB5      30.02F
STENNIS ARPT*  SUNNY     73  37  27 VRB5      30.03F

$$

COASTAL OBSERVATIONS
LAKE AND NEARSHORE STATIONS

STATION/POSITION TIME  TEMP    WIND        PRES    WAVE
                       AIR SEA DIR/SP/G            HT/PER
                 (UTC) (F)     (DEG/KT/KT) (MB)    (FT/S)
PASCAGOULA       2100   74     150/  7/ 10 1016.1
WAVELAND YACHT   2100   69     170/  6/  7 1016.2
GRAND ISLE       2100   72 74   70/  8/ 12 1017.4
SOUTHWEST PASS   2100   83 82              1016.6
NEW CANAL        2100   70 71  360/  5/  7 1017.6
SHELL BEACH      2100   70 69   60/  9/ 10 1016.9

OFFSHORE STATIONS

STATION/POSITION TIME  TEMP    WIND        PRES    WAVE
                       AIR SEA DIR/SP/G            HT/PER
                 (UTC) (F)     (DEG/KT/KT) (MB)    (FT/S)
64 S DAUPHIN ISL 1953   72 80   80/ 14/ 17 1016.5    3/ 6

$$




USA.gov is the U.S. government's official web portal to all federal, state and local government web resources and services.